CW5917 Weather Reports


Display with metric or nautical units.
time (UTC)temp
F
wind
direction
speed
MPH
gust
MPH
rain 1hr
in
rain 24hr
in
rain mn
in
humidity
%
barometer
mb
20260510013535 58 309 4.0 10.0 0.00 0.00 0.00 37 1010.1
20260510013049 58 312 5.0 11.0 0.00 0.00 0.00 37 1009.9
20260510012521 58 303 5.0 11.0 0.00 0.00 0.00 37 1009.9
20260510012041 59 319 8.0 11.0 0.00 0.00 0.00 36 1009.8
20260510011557 59 330 6.0 13.0 0.00 0.00 0.00 37 1009.7
20260510011031 59 309 7.0 13.0 0.00 0.00 0.00 37 1009.5
20260510010058 60 329 6.0 13.0 0.00 0.00 0.00 37 1009.4
20260510005558 60 301 8.0 13.0 0.00 0.00 0.00 36 1009.3
20260510005039 60 340 5.0 11.0 0.00 0.00 0.00 36 1009.3
20260510004521 60 324 6.0 15.0 0.00 0.00 0.00 36 1009.1
20260510004032 60 314 10.0 15.0 0.00 0.00 0.00 36 1009.0
20260510003029 61 302 7.0 12.0 0.00 0.00 0.00 37 1008.8
20260510002537 61 318 7.0 13.0 0.00 0.00 0.00 37 1008.7
20260510002025 61 300 10.0 15.0 0.00 0.00 0.00 36 1008.5
20260510001538 61 318 9.0 15.0 0.00 0.00 0.00 37 1008.5
20260510001028 62 302 9.0 19.0 0.00 0.00 0.00 37 1008.4
20260510000536 62 302 10.0 15.0 0.00 0.00 0.00 38 1008.4
20260510000032 62 317 10.0 17.0 0.00 0.00 0.00 37 1008.3
20260509235527 63 301 11.0 17.0 0.00 0.00 0.00 37 1008.3
20260509235021 63 327 7.0 17.0 0.00 0.00 0.00 38 1008.2
20260509234536 63 304 11.0 16.0 0.00 0.00 0.00 37 1008.1
20260509234019 63 300 10.0 18.0 0.00 0.00 0.00 38 1008.0
20260509233532 64 327 13.0 18.0 0.00 0.00 0.00 37 1008.0
20260509233028 64 279 10.0 24.0 0.00 0.00 0.00 38 1008.0
20260509232521 64 304 13.0 24.0 0.00 0.00 0.00 37 1007.9
20260509232034 64 312 11.0 17.0 0.00 0.00 0.00 38 1007.9
20260509231534 64 314 11.0 18.0 0.00 0.00 0.00 38 1007.8
20260509230533 64 316 9.0 18.0 0.00 0.00 0.00 37 1007.6
20260509230047 65 313 11.0 20.0 0.00 0.00 0.00 36 1007.5
20260509225520 66 297 13.0 20.0 0.00 0.00 0.00 37 1007.3
20260509225019 66 341 11.0 19.0 0.00 0.00 0.00 37 1007.4
20260509224548 66 313 12.0 21.0 0.00 0.00 0.00 36 1007.4
20260509224032 65 327 15.0 21.0 0.00 0.00 0.00 37 1007.2
20260509223537 65 308 10.0 17.0 0.00 0.00 0.00 38 1007.2
20260509223035 65 306 9.0 20.0 0.00 0.00 0.00 37 1007.1
20260509222525 66 319 11.0 20.0 0.00 0.00 0.00 36 1007.0
20260509222019 66 331 12.0 18.0 0.00 0.00 0.00 36 1006.9
20260509221533 66 312 12.0 19.0 0.00 0.00 0.00 37 1006.8
20260509221031 66 286 13.0 21.0 0.00 0.00 0.00 37 1006.9
20260509220521 66 288 14.0 21.0 0.00 0.00 0.00 37 1006.8
20260509220021 67 329 13.0 21.0 0.00 0.00 0.00 35 1006.7
20260509215553 67 284 16.0 23.0 0.00 0.00 0.00 36 1006.6
20260509215019 67 298 13.0 23.0 0.00 0.00 0.00 37 1006.6
20260509214535 67 306 13.0 22.0 0.00 0.00 0.00 36 1006.6
20260509214027 67 308 12.0 18.0 0.00 0.00 0.00 37 1006.5
20260509213521 67 304 10.0 24.0 0.00 0.00 0.00 37 1006.4
20260509213017 68 302 15.0 24.0 0.00 0.00 0.00 36 1006.3
20260509212518 68 304 9.0 19.0 0.00 0.00 0.00 36 1006.2
20260509212056 68 326 14.0 24.0 0.00 0.00 0.00 36 1006.2
20260509211532 68 304 13.0 25.0 0.00 0.00 0.00 36 1006.1
20260509211041 68 315 9.0 20.0 0.00 0.00 0.00 37 1006.0
20260509210524 68 306 13.0 22.0 0.00 0.00 0.00 36 1006.0
20260509210027 68 298 9.0 21.0 0.00 0.00 0.00 36 1005.9
20260509205524 69 318 11.0 24.0 0.00 0.00 0.00 36 1005.9
20260509205039 69 304 16.0 24.0 0.00 0.00 0.00 35 1005.8
20260509204519 69 295 13.0 20.0 0.00 0.00 0.00 36 1005.7
20260509204034 69 310 13.0 20.0 0.00 0.00 0.00 36 1005.7
20260509203517 69 327 11.0 25.0 0.00 0.00 0.00 36 1005.7
20260509203020 69 330 12.0 25.0 0.00 0.00 0.00 34 1005.6
20260509202553 69 302 18.0 25.0 0.00 0.00 0.00 33 1005.6
20260509202017 69 300 13.0 26.0 0.00 0.00 0.00 34 1005.7
20260509201534 69 315 17.0 26.0 0.00 0.00 0.00 35 1005.7
20260509201026 69 311 11.0 20.0 0.00 0.00 0.00 34 1005.5
20260509200522 69 290 9.0 26.0 0.00 0.00 0.00 35 1005.5
20260509200035 69 310 20.0 26.0 0.00 0.00 0.00 34 1005.5
20260509195525 69 311 15.0 24.0 0.00 0.00 0.00 35 1005.4
20260509195019 69 333 16.0 24.0 0.00 0.00 0.00 36 1005.3
20260509194523 69 305 13.0 21.0 0.00 0.00 0.00 37 1005.2
20260509194018 69 281 15.0 24.0 0.00 0.00 0.00 35 1005.0
20260509193526 69 321 17.0 27.0 0.00 0.00 0.00 35 1005.0
20260509193057 69 321 16.0 27.0 0.00 0.00 0.00 36 1005.1
20260509192528 69 292 14.0 25.0 0.00 0.00 0.00 39 1005.0
20260509192022 69 302 16.0 25.0 0.00 0.00 0.00 36 1005.0
20260509191521 69 302 16.0 28.0 0.00 0.00 0.00 37 1004.8
20260509191034 69 248 12.0 28.0 0.00 0.00 0.00 36 1004.7
20260509190547 70 308 16.0 27.0 0.00 0.00 0.00 35 1004.7
20260509190024 70 294 18.0 25.0 0.00 0.00 0.00 35 1004.7
20260509185536 70 304 14.0 25.0 0.00 0.00 0.00 38 1004.6
20260509185054 69 268 14.0 26.0 0.00 0.00 0.00 37 1004.5
20260509184125 69 304 16.0 27.0 0.00 0.00 0.00 35 1004.4
20260509182525 69 304 14.0 24.0 0.00 0.00 0.00 36 1004.1
20260509182050 69 313 18.0 28.0 0.00 0.00 0.00 35 1004.2
20260509181533 70 275 18.0 28.0 0.00 0.00 0.00 36 1004.1
20260509181037 70 277 14.0 26.0 0.00 0.00 0.00 38 1004.0
20260509180522 71 317 15.0 26.0 0.00 0.00 0.00 39 1004.0
20260509180027 70 309 11.0 24.0 0.00 0.00 0.00 41 1004.0
20260509175603 69 302 17.0 24.0 0.00 0.00 0.00 41 1004.0
20260509175105 68 320 12.0 22.0 0.00 0.00 0.00 40 1004.0
20260509174531 69 313 17.0 22.0 0.00 0.00 0.00 39 1004.0
20260509174056 69 280 11.0 19.0 0.00 0.00 0.00 40 1004.0
20260509173538 69 300 14.0 23.0 0.00 0.00 0.00 40 1004.1
20260509173032 68 275 14.0 24.0 0.00 0.00 0.00 40 1004.1
20260509172527 68 298 16.0 28.0 0.00 0.00 0.00 40 1004.0
20260509172031 68 290 16.0 25.0 0.00 0.00 0.00 38 1003.9
20260509171534 69 269 12.0 21.0 0.00 0.00 0.00 38 1003.9
20260509171035 69 291 10.0 23.0 0.00 0.00 0.00 37 1003.8
20260509170527 69 272 14.0 23.0 0.00 0.00 0.00 37 1003.8
20260509170018 69 266 14.0 28.0 0.00 0.00 0.00 38 1003.9
20260509165532 69 249 13.0 28.0 0.00 0.00 0.00 38 1003.9
20260509165033 69 309 15.0 25.0 0.00 0.00 0.00 35 1004.0
20260509164528 68 285 14.0 24.0 0.00 0.00 0.00 37 1003.8
20260509164018 68 242 17.0 26.0 0.00 0.00 0.00 36 1004.0
20260509163554 68 344 9.0 26.0 0.00 0.00 0.00 38 1003.9
20260509163033 68 254 17.0 24.0 0.00 0.00 0.00 37 1004.0
20260509162516 68 259 16.0 25.0 0.00 0.00 0.00 37 1003.8
20260509162033 68 310 12.0 24.0 0.00 0.00 0.00 36 1003.9
20260509161550 67 306 12.0 19.0 0.00 0.00 0.00 40 1003.9
20260509161017 66 280 11.0 20.0 0.00 0.00 0.00 40 1003.9
20260509160532 65 235 13.0 20.0 0.00 0.00 0.00 42 1003.9
20260509160030 64 288 7.0 15.0 0.00 0.00 0.00 44 1004.0
20260509155525 64 240 8.0 15.0 0.00 0.00 0.00 43 1003.9
20260509155036 63 263 8.0 18.0 0.00 0.00 0.00 43 1004.0
20260509154530 62 252 11.0 18.0 0.00 0.00 0.00 44 1003.8
20260509154040 61 220 10.0 15.0 0.00 0.00 0.00 44 1004.0
20260509153535 61 232 7.0 12.0 0.00 0.00 0.00 44 1004.0
20260509153022 61 238 8.0 12.0 0.00 0.00 0.00 45 1004.1
20260509152532 62 239 7.0 15.0 0.00 0.00 0.00 45 1004.1
20260509152020 62 227 10.0 15.0 0.00 0.00 0.00 45 1004.3
20260509151537 61 227 7.0 11.0 0.00 0.00 0.00 48 1004.4
20260509151030 61 268 5.0 14.0 0.00 0.00 0.00 47 1004.5
20260509150533 60 284 7.0 14.0 0.00 0.00 0.00 46 1004.5
20260509150026 61 284 8.0 14.0 0.00 0.00 0.00 45 1004.7
20260509145522 61 301 7.0 16.0 0.00 0.00 0.00 45 1004.6
20260509145035 61 244 10.0 19.0 0.00 0.00 0.00 45 1004.6
20260509144521 61 296 10.0 19.0 0.00 0.00 0.00 48 1004.7
20260509144037 61 263 8.0 18.0 0.00 0.00 0.00 47 1004.6
20260509143520 61 301 6.0 15.0 0.00 0.00 0.00 52 1004.6
20260509143034 60 270 9.0 15.0 0.00 0.00 0.00 52 1004.5
20260509142539 59 291 10.0 14.0 0.00 0.00 0.00 51 1004.5
20260509142032 59 279 8.0 14.0 0.00 0.00 0.00 53 1004.2
20260509141519 59 222 8.0 14.0 0.00 0.00 0.00 53 1004.0
20260509141031 59 247 8.0 11.0 0.00 0.00 0.00 53 1003.8
20260509140526 59 229 6.0 12.0 0.00 0.00 0.00 53 1003.8
20260509140025 59 242 9.0 12.0 0.00 0.00 0.00 53 1003.8
20260509135545 59 203 7.0 12.0 0.00 0.00 0.00 55 1003.6
20260509135115 59 244 6.0 11.0 0.00 0.00 0.00 56 1003.6
20260509134521 58 237 6.0 9.0 0.00 0.00 0.00 59 1003.6
20260509134020 58 193 6.0 10.0 0.00 0.00 0.00 60 1003.7
20260509133548 58 209 7.0 10.0 0.00 0.00 0.00 59 1003.5
20260509133025 58 232 7.0 9.0 0.00 0.00 0.00 61 1003.5
20260509132522 57 226 7.0 10.0 0.00 0.00 0.00 60 1003.5
20260509132052 57 231 6.0 10.0 0.00 0.00 0.00 61 1003.5
20260509131536 57 227 5.0 9.0 0.00 0.00 0.00 62 1003.4
20260509131030 57 241 7.0 9.0 0.00 0.00 0.00 63 1003.4
20260509130543 57 256 6.0 10.0 0.00 0.00 0.00 66 1003.4
20260509130033 56 246 6.0 13.0 0.00 0.00 0.00 67 1003.3
20260509125527 56 224 8.0 10.0 0.00 0.00 0.00 69 1003.2
20260509125021 55 225 7.0 10.0 0.00 0.00 0.00 71 1003.4
20260509124537 55 211 7.0 10.0 0.00 0.00 0.00 74 1003.3
20260509124027 54 224 8.0 11.0 0.00 0.00 0.00 76 1003.4
20260509123521 54 208 8.0 10.0 0.00 0.00 0.00 77 1003.3
20260509123030 53 232 8.0 10.0 0.00 0.00 0.00 78 1003.3
20260509122523 53 222 6.0 9.0 0.00 0.00 0.00 79 1003.2
20260509122036 53 223 8.0 9.0 0.00 0.00 0.00 81 1003.2
20260509121520 52 226 8.0 9.0 0.00 0.00 0.00 83 1003.0
20260509121034 52 211 6.0 9.0 0.00 0.00 0.00 84 1003.0
20260509120539 51 221 5.0 7.0 0.00 0.00 0.00 85 1003.2
20260509120046 51 229 4.0 7.0 0.00 0.00 0.00 85 1003.3
20260509115519 51 224 4.0 7.0 0.00 0.00 0.00 85 1003.4
20260509115034 50 222 3.0 6.0 0.00 0.00 0.00 85 1003.1
20260509114027 50 223 4.0 5.0 0.00 0.00 0.00 86 1003.2
20260509113520 50 223 3.0 4.0 0.00 0.00 0.00 85 1003.2
20260509113020 50 223 3.0 4.0 0.00 0.00 0.00 85 1003.1
20260509112606 50 223 2.0 4.0 0.00 0.00 0.00 85 1003.0
20260509112031 50 223 3.0 6.0 0.00 0.00 0.00 85 1003.0
20260509111542 50 246 3.0 4.0 0.00 0.00 0.00 85 1002.8
20260509111037 50 248 3.0 7.0 0.00 0.00 0.00 85 1002.8
20260509110526 50 245 4.0 7.0 0.00 0.00 0.00 85 1002.8
20260509110039 51 255 4.0 7.0 0.00 0.00 0.00 85 1002.8
20260509105533 51 242 4.0 7.0 0.00 0.00 0.00 85 1002.9
20260509105019 51 269 3.0 7.0 0.00 0.00 0.00 85 1003.0
20260509104526 51 251 4.0 8.0 0.00 0.00 0.00 85 1003.0
20260509104040 51 234 4.0 7.0 0.00 0.00 0.00 85 1002.9
20260509103537 51 242 4.0 8.0 0.00 0.00 0.00 85 1002.7
20260509103042 51 243 4.0 8.0 0.00 0.00 0.00 85 1002.6
20260509102531 51 227 5.0 7.0 0.00 0.00 0.00 85 1002.5
20260509102024 52 227 5.0 8.0 0.00 0.00 0.00 84 1002.6
20260509101522 52 259 5.0 9.0 0.00 0.00 0.00 84 1002.5
20260509101033 52 239 4.0 9.0 0.00 0.00 0.00 84 1002.5
20260509100519 52 227 4.0 9.0 0.00 0.00 0.00 84 1002.4
20260509100028 52 236 5.0 8.0 0.00 0.00 0.00 84 1002.4
20260509095529 52 221 5.0 8.0 0.00 0.00 0.00 84 1002.4
20260509095037 52 224 5.0 8.0 0.00 0.00 0.00 83 1002.4
20260509094531 53 223 5.0 8.0 0.00 0.00 0.00 83 1002.4
20260509094018 53 225 6.0 8.0 0.00 0.00 0.00 83 1002.5
20260509093521 53 234 7.0 9.0 0.00 0.00 0.00 83 1002.5
20260509093026 53 232 6.0 10.0 0.00 0.00 0.00 83 1002.6
20260509092522 53 223 7.0 12.0 0.00 0.00 0.00 83 1002.7
20260509092036 54 228 8.0 12.0 0.00 0.00 0.00 82 1002.6
20260509091540 54 227 8.0 12.0 0.00 0.00 0.00 82 1002.6
20260509091032 54 215 7.0 11.0 0.00 0.00 0.00 82 1002.5
20260509090523 54 235 6.0 12.0 0.00 0.00 0.00 82 1002.5
20260509090054 54 217 8.0 12.0 0.00 0.00 0.00 82 1002.5
20260509085536 54 253 6.0 11.0 0.00 0.00 0.00 81 1002.4
20260509085023 54 232 7.0 13.0 0.00 0.00 0.00 81 1002.6
20260509084524 54 248 10.0 13.0 0.00 0.00 0.00 81 1002.6
20260509084103 54 238 7.0 12.0 0.00 0.00 0.00 81 1002.5
20260509083520 55 222 9.0 12.0 0.00 0.00 0.00 81 1002.4
20260509083053 55 244 9.0 13.0 0.00 0.00 0.00 81 1002.4
20260509082529 55 226 8.0 13.0 0.00 0.00 0.00 81 1002.3
20260509082028 55 229 6.0 12.0 0.00 0.00 0.00 80 1002.2
20260509081531 55 222 6.0 13.0 0.00 0.00 0.00 80 1002.2
20260509081023 55 233 7.0 15.0 0.00 0.00 0.00 80 1002.1
20260509080519 55 232 11.0 15.0 0.00 0.00 0.00 80 1002.1
20260509080046 55 213 9.0 13.0 0.00 0.00 0.00 80 1002.0
20260509075536 55 215 9.0 16.0 0.00 0.00 0.00 79 1002.2
20260509075056 55 211 9.0 16.0 0.00 0.00 0.00 79 1002.2
20260509074520 55 211 8.0 14.0 0.00 0.00 0.00 79 1002.1
20260509074053 55 215 8.0 14.0 0.00 0.00 0.00 78 1002.1
20260509073538 55 203 10.0 14.0 0.00 0.00 0.00 78 1002.0
20260509073044 55 225 8.0 14.0 0.00 0.00 0.00 78 1002.2
20260509072535 55 196 9.0 13.0 0.00 0.00 0.00 78 1002.2
20260509072027 55 207 9.0 15.0 0.00 0.00 0.00 78 1002.1
20260509071536 55 221 9.0 15.0 0.00 0.00 0.00 77 1002.2
20260509071030 55 201 8.0 14.0 0.00 0.00 0.00 76 1002.4
20260509070527 55 196 8.0 14.0 0.00 0.00 0.00 76 1002.3
20260509065520 55 211 8.0 14.0 0.00 0.00 0.00 75 1002.6
20260509065056 56 219 8.0 12.0 0.00 0.00 0.00 74 1002.5
20260509064533 56 213 8.0 12.0 0.00 0.00 0.00 74 1002.5
20260509064028 56 219 8.0 14.0 0.00 0.00 0.00 73 1002.6
20260509063548 56 202 9.0 13.0 0.00 0.00 0.00 72 1002.5
20260509063050 56 221 10.0 14.0 0.00 0.00 0.00 71 1002.5
20260509062610 56 213 11.0 14.0 0.00 0.00 0.00 70 1002.6
20260509061520 57 194 9.0 15.0 0.00 0.00 0.00 68 1002.7
20260509061035 57 217 10.0 15.0 0.00 0.00 0.00 67 1002.8
20260509060535 57 213 9.0 16.0 0.00 0.00 0.00 66 1003.0
20260509060032 57 206 9.0 16.0 0.00 0.00 0.00 65 1002.9
20260509055527 57 209 9.0 16.0 0.00 0.00 0.00 64 1003.0
20260509055028 58 208 10.0 16.0 0.00 0.00 0.00 63 1003.1
20260509054523 58 221 10.0 16.0 0.00 0.00 0.00 61 1003.1
20260509054019 58 217 10.0 16.0 0.00 0.00 0.00 60 1003.1
20260509053531 58 225 11.0 19.0 0.00 0.00 0.00 59 1003.2
20260509053020 59 235 11.0 19.0 0.00 0.00 0.00 58 1003.2
20260509052541 59 209 11.0 16.0 0.00 0.00 0.00 57 1003.2
20260509052047 59 212 11.0 19.0 0.00 0.00 0.00 57 1003.3
20260509051545 59 192 12.0 19.0 0.00 0.00 0.00 56 1003.5
20260509051029 60 218 11.0 18.0 0.00 0.00 0.00 55 1003.5
20260509050524 60 233 9.0 18.0 0.00 0.00 0.00 54 1003.4
20260509050028 60 214 11.0 19.0 0.00 0.00 0.00 53 1003.6
20260509045523 60 202 13.0 19.0 0.00 0.00 0.00 53 1003.7
20260509045037 61 227 10.0 18.0 0.00 0.00 0.00 52 1003.6
20260509044532 61 192 13.0 22.0 0.00 0.00 0.00 52 1003.8
20260509044021 61 191 11.0 22.0 0.00 0.00 0.00 51 1003.7
20260509043523 61 194 10.0 19.0 0.00 0.00 0.00 51 1003.9
20260509043022 61 230 10.0 19.0 0.00 0.00 0.00 50 1004.0
20260509042518 61 209 10.0 19.0 0.00 0.00 0.00 50 1004.0
20260509042055 61 196 10.0 16.0 0.00 0.00 0.00 51 1004.0
20260509041532 61 210 6.0 11.0 0.00 0.00 0.00 52 1003.8
20260509041026 61 220 7.0 17.0 0.00 0.00 0.00 52 1003.8
20260509040521 60 244 9.0 16.0 0.00 0.00 0.00 52 1003.9
20260509040035 61 220 12.0 17.0 0.00 0.00 0.00 51 1004.0
20260509035539 61 230 8.0 17.0 0.00 0.00 0.00 51 1003.9
20260509035020 61 216 10.0 20.0 0.00 0.00 0.00 50 1003.7
20260509034526 61 217 10.0 20.0 0.00 0.00 0.00 50 1003.6
20260509034023 61 196 12.0 17.0 0.00 0.00 0.00 50 1003.6
20260509033538 61 217 8.0 15.0 0.00 0.00 0.00 50 1003.6
20260509033022 61 169 7.0 15.0 0.00 0.00 0.00 50 1003.4
20260509032518 61 190 8.0 15.0 0.00 0.00 0.00 49 1003.4
20260509032033 61 171 9.0 14.0 0.00 0.00 0.00 49 1003.5
20260509031532 61 181 9.0 16.0 0.00 0.00 0.00 48 1003.4
20260509031026 61 199 9.0 16.0 0.00 0.00 0.00 48 1003.5
20260509030523 61 210 12.0 16.0 0.00 0.00 0.00 48 1003.4
20260509030044 61 198 10.0 15.0 0.00 0.00 0.00 47 1003.4
20260509025600 61 187 10.0 15.0 0.00 0.00 0.00 46 1003.5
20260509025029 60 202 8.0 16.0 0.00 0.00 0.00 45 1003.5
20260509024522 60 187 9.0 14.0 0.00 0.00 0.00 44 1003.6
20260509024042 60 198 7.0 12.0 0.00 0.00 0.00 43 1003.7
20260509023534 60 192 6.0 11.0 0.00 0.00 0.00 42 1003.7
20260509023039 60 188 5.0 10.0 0.00 0.00 0.00 41 1003.6
20260509022526 60 203 5.0 9.0 0.00 0.00 0.00 41 1003.8
20260509022044 60 184 6.0 8.0 0.00 0.00 0.00 40 1003.7
20260509021523 60 195 2.0 6.0 0.00 0.00 0.00 40 1003.7
20260509021038 60 144 4.0 6.0 0.00 0.00 0.00 40 1003.6
20260509020534 60 171 5.0 7.0 0.00 0.00 0.00 40 1003.7
20260509020059 60 173 4.0 7.0 0.00 0.00 0.00 39 1003.7
20260509015534 60 186 4.0 7.0 0.00 0.00 0.00 38 1003.9
20260509015036 60 194 3.0 5.0 0.00 0.00 0.00 38 1003.8
20260509014532 61 176 3.0 6.0 0.00 0.00 0.00 38 1003.9
20260509014026 61 191 3.0 6.0 0.00 0.00 0.00 38 1003.9